| time (UTC) | temp F | wind direction | speed MPH | gust MPH | rain 1hr in | rain 24hr in | rain mn in | humidity % | barometer mb |
| 20260503011452 | 71 | 205 | 2.0 | 4.0 | 0.00 | 0.00 | 0.00 | 50 | 1016.9 |
| 20260503010453 | 71 | 205 | 2.0 | 3.0 | 0.00 | 0.00 | 0.00 | 48 | 1016.8 |
| 20260503005447 | 72 | 205 | 3.0 | 4.0 | 0.00 | 0.00 | 0.00 | 48 | 1016.8 |
| 20260503004446 | 73 | 194 | 2.0 | 4.0 | 0.00 | 0.00 | 0.00 | 44 | 1016.8 |
| 20260503003446 | 73 | 238 | 2.0 | 4.0 | 0.00 | 0.00 | 0.00 | 44 | 1016.7 |
| 20260503002447 | 74 | 238 | 2.0 | 3.0 | 0.00 | 0.00 | 0.00 | 44 | 1016.7 |
| 20260503001448 | 75 | 240 | 2.0 | 3.0 | 0.00 | 0.00 | 0.00 | 43 | 1016.7 |
| 20260503000931 | 75 | 240 | 2.0 | 4.0 | 0.00 | 0.00 | 0.00 | 42 | 1016.8 |
| 20260502235446 | 75 | 226 | 2.0 | 5.0 | 0.00 | 0.00 | 0.00 | 41 | 1016.8 |
| 20260502234447 | 75 | 242 | 2.0 | 6.0 | 0.00 | 0.00 | 0.00 | 41 | 1016.9 |
| 20260502233449 | 75 | 215 | 3.0 | 4.0 | 0.00 | 0.00 | 0.00 | 40 | 1016.9 |
| 20260502232441 | 76 | 213 | 2.0 | 5.0 | 0.00 | 0.00 | 0.00 | 40 | 1016.9 |
| 20260502231843 | 76 | 321 | 2.0 | 9.0 | 0.00 | 0.00 | 0.00 | 43 | 1016.9 |
| 20260502231520 | 76 | 314 | 1.0 | 4.0 | 0.00 | 0.00 | 0.00 | 40 | 1016.9 |
| 20260502225440 | 75 | 283 | 2.0 | 6.0 | 0.00 | 0.00 | 0.00 | 41 | 1017.0 |
| 20260502224440 | 75 | 296 | 2.0 | 4.0 | 0.00 | 0.00 | 0.00 | 41 | 1016.9 |
| 20260502223442 | 74 | 343 | 3.0 | 5.0 | 0.00 | 0.00 | 0.00 | 41 | 1017.1 |
| 20260502222440 | 75 | 197 | 3.0 | 7.0 | 0.00 | 0.00 | 0.00 | 40 | 1017.2 |
| 20260502221442 | 76 | 333 | 2.0 | 6.0 | 0.00 | 0.00 | 0.00 | 42 | 1017.2 |
| 20260502220441 | 75 | 206 | 1.0 | 4.0 | 0.00 | 0.00 | 0.00 | 41 | 1017.2 |
| 20260502215435 | 75 | 15 | 2.0 | 8.0 | 0.00 | 0.00 | 0.00 | 41 | 1017.4 |
| 20260502214916 | 75 | 329 | 3.0 | 9.0 | 0.00 | 0.00 | 0.00 | 44 | 1017.5 |
| 20260502213434 | 75 | 13 | 3.0 | 10.0 | 0.00 | 0.00 | 0.00 | 43 | 1017.6 |
| 20260502213403 | 75 | 316 | 2.0 | 6.0 | 0.00 | 0.00 | 0.00 | 44 | 1017.7 |
| 20260502211436 | 75 | 325 | 3.0 | 8.0 | 0.00 | 0.00 | 0.00 | 44 | 1017.9 |
| 20260502210436 | 74 | 247 | 4.0 | 10.0 | 0.00 | 0.00 | 0.00 | 41 | 1018.0 |
| 20260502205930 | 75 | 290 | 3.0 | 10.0 | 0.00 | 0.00 | 0.00 | 41 | 1018.1 |
| 20260502204435 | 75 | 334 | 3.0 | 10.0 | 0.00 | 0.00 | 0.00 | 42 | 1018.2 |
| 20260502203435 | 74 | 355 | 3.0 | 9.0 | 0.00 | 0.00 | 0.00 | 44 | 1018.3 |
| 20260502202430 | 74 | 328 | 4.0 | 10.0 | 0.00 | 0.00 | 0.00 | 46 | 1018.4 |
| 20260502201428 | 73 | 331 | 6.0 | 10.0 | 0.00 | 0.00 | 0.00 | 41 | 1018.6 |
| 20260502200428 | 74 | 315 | 4.0 | 9.0 | 0.00 | 0.00 | 0.00 | 44 | 1018.7 |
| 20260502195428 | 73 | 213 | 3.0 | 9.0 | 0.00 | 0.00 | 0.00 | 40 | 1018.7 |
| 20260502194430 | 74 | 329 | 2.0 | 9.0 | 0.00 | 0.00 | 0.00 | 42 | 1018.7 |
| 20260502194401 | 73 | 300 | 3.0 | 9.0 | 0.00 | 0.00 | 0.00 | 42 | 1018.8 |
| 20260502192924 | 73 | 346 | 2.0 | 12.0 | 0.00 | 0.00 | 0.00 | 44 | 1018.9 |
| 20260502191428 | 73 | 339 | 4.0 | 10.0 | 0.00 | 0.00 | 0.00 | 45 | 1019.0 |
| 20260502190432 | 72 | 355 | 4.0 | 9.0 | 0.00 | 0.00 | 0.00 | 45 | 1019.1 |
| 20260502185424 | 72 | 315 | 3.0 | 8.0 | 0.00 | 0.00 | 0.00 | 43 | 1019.2 |
| 20260502184907 | 72 | 337 | 6.0 | 10.0 | 0.00 | 0.00 | 0.00 | 44 | 1019.5 |
| 20260502183423 | 73 | 350 | 2.0 | 11.0 | 0.00 | 0.00 | 0.00 | 44 | 1019.5 |
| 20260502182422 | 72 | 26 | 3.0 | 8.0 | 0.00 | 0.00 | 0.00 | 45 | 1019.7 |
| 20260502181422 | 72 | 267 | 2.0 | 8.0 | 0.00 | 0.00 | 0.00 | 45 | 1019.7 |
| 20260502180859 | 71 | 12 | 3.0 | 9.0 | 0.00 | 0.00 | 0.00 | 44 | 1019.8 |
| 20260502163417 | 68 | 329 | 3.0 | 8.0 | 0.00 | 0.00 | 0.00 | 54 | 1020.8 |
| 20260502162420 | 67 | 261 | 3.0 | 7.0 | 0.00 | 0.00 | 0.00 | 55 | 1020.8 |
| 20260502161417 | 67 | 332 | 3.0 | 8.0 | 0.00 | 0.00 | 0.00 | 55 | 1020.7 |
| 20260502160851 | 67 | 311 | 4.0 | 8.0 | 0.00 | 0.00 | 0.00 | 55 | 1020.6 |
| 20260502151410 | 63 | 287 | 5.0 | 9.0 | 0.00 | 0.00 | 0.00 | 72 | 1020.4 |
| 20260502150901 | 62 | 318 | 5.0 | 9.0 | 0.00 | 0.00 | 0.00 | 74 | 1020.4 |
| 20260502130406 | 53 | 344 | 4.0 | 6.0 | 0.00 | 0.00 | 0.00 | 89 | 1019.6 |
| 20260502123358 | 52 | 323 | 4.0 | 6.0 | 0.00 | 0.00 | 0.00 | 90 | 1019.3 |
| 20260502122358 | 51 | 343 | 5.0 | 8.0 | 0.00 | 0.00 | 0.00 | 90 | 1019.0 |
| 20260502121359 | 51 | 317 | 5.0 | 9.0 | 0.00 | 0.00 | 0.00 | 89 | 1018.8 |
| 20260502120400 | 51 | 342 | 6.0 | 9.0 | 0.00 | 0.00 | 0.00 | 89 | 1018.7 |
| 20260502115401 | 51 | 333 | 5.0 | 8.0 | 0.00 | 0.00 | 0.00 | 89 | 1018.5 |
| 20260502114358 | 51 | 350 | 5.0 | 8.0 | 0.00 | 0.00 | 0.00 | 89 | 1018.4 |
| 20260502113359 | 51 | 331 | 6.0 | 9.0 | 0.00 | 0.00 | 0.00 | 89 | 1018.2 |
| 20260502112835 | 51 | 341 | 7.0 | 10.0 | 0.00 | 0.00 | 0.00 | 89 | 1018.1 |
| 20260502111354 | 51 | 350 | 6.0 | 10.0 | 0.00 | 0.00 | 0.00 | 88 | 1017.9 |
| 20260502110354 | 51 | 345 | 6.0 | 10.0 | 0.00 | 0.00 | 0.00 | 88 | 1017.7 |
| 20260502105354 | 52 | 344 | 7.0 | 10.0 | 0.00 | 0.00 | 0.00 | 88 | 1017.5 |
| 20260502104352 | 52 | 334 | 6.0 | 11.0 | 0.00 | 0.00 | 0.00 | 88 | 1017.5 |
| 20260502103840 | 52 | 342 | 5.0 | 9.0 | 0.00 | 0.00 | 0.00 | 88 | 1017.5 |
| 20260502102353 | 52 | 346 | 5.0 | 8.0 | 0.00 | 0.00 | 0.00 | 88 | 1017.5 |
| 20260502101354 | 52 | 325 | 4.0 | 6.0 | 0.00 | 0.00 | 0.00 | 87 | 1017.5 |
| 20260502100355 | 52 | 344 | 5.0 | 8.0 | 0.00 | 0.00 | 0.00 | 87 | 1017.7 |
| 20260502091346 | 53 | 335 | 5.0 | 8.0 | 0.00 | 0.00 | 0.00 | 86 | 1017.2 |
| 20260502090834 | 53 | 336 | 4.0 | 6.0 | 0.00 | 0.00 | 0.00 | 86 | 1017.1 |
| 20260502071340 | 55 | 184 | 0.0 | 2.0 | 0.00 | 0.00 | 0.00 | 81 | 1017.3 |
| 20260502070341 | 55 | 184 | 1.0 | 2.0 | 0.00 | 0.00 | 0.00 | 80 | 1017.5 |
| 20260502065335 | 55 | 184 | 1.0 | 2.0 | 0.00 | 0.00 | 0.00 | 79 | 1017.5 |
| 20260502064336 | 55 | 184 | 0.0 | 0.0 | 0.00 | 0.00 | 0.00 | 78 | 1017.5 |
| 20260502063334 | 55 | 184 | 1.0 | 2.0 | 0.00 | 0.00 | 0.00 | 79 | 1017.5 |
| 20260502062335 | 55 | 184 | 1.0 | 2.0 | 0.00 | 0.00 | 0.00 | 77 | 1017.4 |
| 20260502061334 | 55 | 184 | 1.0 | 3.0 | 0.00 | 0.00 | 0.00 | 76 | 1017.4 |
| 20260502060829 | 56 | 184 | 1.0 | 2.0 | 0.00 | 0.00 | 0.00 | 76 | 1017.3 |
| 20260502055334 | 56 | 177 | 2.0 | 4.0 | 0.00 | 0.00 | 0.00 | 76 | 1017.4 |
| 20260502054334 | 56 | 203 | 3.0 | 5.0 | 0.00 | 0.00 | 0.00 | 77 | 1017.4 |
| 20260502053338 | 57 | 181 | 2.0 | 4.0 | 0.00 | 0.00 | 0.00 | 77 | 1017.5 |
| 20260502052329 | 57 | 181 | 2.0 | 3.0 | 0.00 | 0.00 | 0.00 | 77 | 1017.6 |
| 20260502051328 | 57 | 181 | 1.0 | 3.0 | 0.00 | 0.00 | 0.00 | 78 | 1017.5 |
| 20260502050836 | 57 | 181 | 1.0 | 3.0 | 0.00 | 0.00 | 0.00 | 78 | 1017.4 |
| 20260502050725 | 57 | 181 | 1.0 | 2.0 | 0.00 | 0.00 | 0.00 | 77 | 1017.5 |
| 20260502044810 | 57 | 181 | 2.0 | 3.0 | 0.00 | 0.00 | 0.00 | 77 | 1017.4 |
| 20260502043328 | 58 | 181 | 2.0 | 3.0 | 0.00 | 0.00 | 0.00 | 77 | 1017.5 |
| 20260502042326 | 58 | 181 | 2.0 | 4.0 | 0.00 | 0.00 | 0.00 | 76 | 1017.4 |
| 20260502041327 | 58 | 181 | 2.0 | 4.0 | 0.00 | 0.00 | 0.00 | 76 | 1017.4 |
| 20260502040327 | 58 | 153 | 0.0 | 2.0 | 0.00 | 0.00 | 0.00 | 75 | 1017.3 |
| 20260502035322 | 58 | 153 | 1.0 | 2.0 | 0.00 | 0.00 | 0.00 | 73 | 1017.2 |
| 20260502034320 | 58 | 153 | 1.0 | 3.0 | 0.00 | 0.00 | 0.00 | 72 | 1017.2 |
| 20260502033320 | 59 | 153 | 1.0 | 3.0 | 0.00 | 0.00 | 0.00 | 70 | 1017.1 |
| 20260502032325 | 59 | 153 | 1.0 | 5.0 | 0.00 | 0.00 | 0.00 | 69 | 1017.0 |
| 20260502031320 | 59 | 157 | 0.0 | 4.0 | 0.00 | 0.00 | 0.00 | 70 | 1016.9 |
| 20260502030320 | 60 | 130 | 0.0 | 2.0 | 0.00 | 0.00 | 0.00 | 70 | 1016.8 |
| 20260502025322 | 60 | 130 | 0.0 | 2.0 | 0.00 | 0.00 | 0.00 | 70 | 1016.7 |
| 20260502024320 | 60 | 130 | 0.0 | 2.0 | 0.00 | 0.00 | 0.00 | 70 | 1016.6 |
| 20260502023325 | 60 | 130 | 1.0 | 2.0 | 0.00 | 0.00 | 0.00 | 69 | 1016.5 |
| 20260502022316 | 61 | 130 | 1.0 | 2.0 | 0.00 | 0.00 | 0.00 | 69 | 1016.3 |
| 20260502021751 | 61 | 130 | 0.0 | 2.0 | 0.00 | 0.00 | 0.00 | 68 | 1016.2 |
| 20260502020316 | 61 | 80 | 0.0 | 0.0 | 0.00 | 0.00 | 0.00 | 68 | 1016.1 |
| 20260502015315 | 61 | 80 | 0.0 | 0.0 | 0.00 | 0.00 | 0.00 | 66 | 1015.9 |
| 20260502014315 | 61 | 80 | 0.0 | 0.0 | 0.00 | 0.00 | 0.00 | 67 | 1015.8 |
| 20260502013800 | 61 | 80 | 0.0 | 0.0 | 0.00 | 0.00 | 0.00 | 66 | 1015.6 |
| 20260502012315 | 62 | 80 | 0.0 | 0.0 | 0.00 | 0.00 | 0.00 | 65 | 1015.4 |